Year,Month,Day,Hour,Minute,Value (Times are PST for temperature in C)
2011,04,22,00,00,5.90
2011,04,22,00,01,5.90
2011,04,22,00,02,5.90
2011,04,22,00,03,5.80
2011,04,22,00,04,5.80
2011,04,22,00,05,5.80
2011,04,22,00,06,5.70
2011,04,22,00,07,5.70
2011,04,22,00,08,5.70
2011,04,22,00,09,5.70
2011,04,22,00,10,5.60
2011,04,22,00,11,5.60
2011,04,22,00,12,5.50
2011,04,22,00,13,5.50
2011,04,22,00,14,5.40
2011,04,22,00,15,5.30
2011,04,22,00,16,5.30
2011,04,22,00,17,5.20
2011,04,22,00,18,5.20
2011,04,22,00,19,5.20
2011,04,22,00,20,5.20
2011,04,22,00,21,5.20
2011,04,22,00,22,5.10
2011,04,22,00,23,5.10
2011,04,22,00,24,5.10
2011,04,22,00,25,5.10
2011,04,22,00,26,5.10
2011,04,22,00,27,5.10
2011,04,22,00,28,5.00
2011,04,22,00,29,5.00
2011,04,22,00,30,4.90
2011,04,22,00,31,4.90
2011,04,22,00,32,4.90
2011,04,22,00,33,4.90
2011,04,22,00,34,4.90
2011,04,22,00,35,4.80
2011,04,22,00,36,4.80
2011,04,22,00,37,4.80
2011,04,22,00,38,4.80
2011,04,22,00,39,4.80
2011,04,22,00,40,4.80
2011,04,22,00,41,4.70
2011,04,22,00,42,4.70
2011,04,22,00,43,4.70
2011,04,22,00,44,4.60
2011,04,22,00,45,4.60
2011,04,22,00,46,4.50
2011,04,22,00,47,4.50
2011,04,22,00,48,4.50
2011,04,22,00,49,4.40
2011,04,22,00,50,4.40
2011,04,22,00,51,4.30
2011,04,22,00,52,4.30
2011,04,22,00,53,4.30
2011,04,22,00,54,4.30
2011,04,22,00,55,4.20
2011,04,22,00,56,4.20
2011,04,22,00,57,4.20
2011,04,22,00,58,4.20
2011,04,22,00,59,4.20
2011,04,22,01,00,4.10
2011,04,22,01,01,4.10
2011,04,22,01,02,4.10
2011,04,22,01,03,4.10
2011,04,22,01,04,4.10
2011,04,22,01,05,4.10
2011,04,22,01,06,4.10
2011,04,22,01,07,4.10
2011,04,22,01,08,4.10
2011,04,22,01,09,4.00
2011,04,22,01,10,4.10
2011,04,22,01,11,4.10
2011,04,22,01,12,4.10
2011,04,22,01,13,4.10
2011,04,22,01,14,4.10
2011,04,22,01,15,4.10
2011,04,22,01,16,4.10
2011,04,22,01,17,4.10
2011,04,22,01,18,4.10
2011,04,22,01,19,4.00
2011,04,22,01,20,4.00
2011,04,22,01,21,4.00
2011,04,22,01,22,4.00
2011,04,22,01,23,3.90
2011,04,22,01,24,3.90
2011,04,22,01,25,3.90
2011,04,22,01,26,3.90
2011,04,22,01,27,3.90
2011,04,22,01,28,3.90
2011,04,22,01,29,4.00
2011,04,22,01,30,4.10
2011,04,22,01,31,4.10
2011,04,22,01,32,4.10
2011,04,22,01,33,4.10
2011,04,22,01,34,4.10
2011,04,22,01,35,4.10
2011,04,22,01,36,4.10
2011,04,22,01,37,4.00
2011,04,22,01,38,4.00
2011,04,22,01,39,4.00
2011,04,22,01,40,3.90
2011,04,22,01,41,3.90
2011,04,22,01,42,3.80
2011,04,22,01,43,3.80
2011,04,22,01,44,3.80
2011,04,22,01,45,3.70
2011,04,22,01,46,3.70
2011,04,22,01,47,3.70
2011,04,22,01,48,3.70
2011,04,22,01,49,3.70
2011,04,22,01,50,3.70
2011,04,22,01,51,3.70
2011,04,22,01,52,3.70
2011,04,22,01,53,3.70
2011,04,22,01,54,3.70
2011,04,22,01,55,3.70
2011,04,22,01,56,3.60
2011,04,22,01,57,3.60
2011,04,22,01,58,3.60
2011,04,22,01,59,3.60
2011,04,22,02,00,3.60
2011,04,22,02,01,3.60
2011,04,22,02,02,3.60
2011,04,22,02,03,3.60
2011,04,22,02,04,3.70
2011,04,22,02,05,3.80
2011,04,22,02,06,3.80
2011,04,22,02,07,3.80
2011,04,22,02,08,3.80
2011,04,22,02,09,3.80
2011,04,22,02,10,3.80
2011,04,22,02,11,3.80
2011,04,22,02,12,3.90
2011,04,22,02,13,4.00
2011,04,22,02,14,4.00
2011,04,22,02,15,4.00
2011,04,22,02,16,4.00
2011,04,22,02,17,4.00
2011,04,22,02,18,3.90
2011,04,22,02,19,3.90
2011,04,22,02,20,3.90
2011,04,22,02,21,3.80
2011,04,22,02,22,3.80
2011,04,22,02,23,3.80
2011,04,22,02,24,3.80
2011,04,22,02,25,3.70
2011,04,22,02,26,3.70
2011,04,22,02,27,3.70
2011,04,22,02,28,3.70
2011,04,22,02,29,3.70
2011,04,22,02,30,3.70
2011,04,22,02,31,3.70
2011,04,22,02,32,3.80
2011,04,22,02,33,3.80
2011,04,22,02,34,3.80
2011,04,22,02,35,3.90
2011,04,22,02,36,3.90
2011,04,22,02,37,3.90
2011,04,22,02,38,3.90
2011,04,22,02,39,3.90
2011,04,22,02,40,3.80
2011,04,22,02,41,3.80
2011,04,22,02,42,3.80
2011,04,22,02,43,3.80
2011,04,22,02,44,3.80
2011,04,22,02,45,3.80
2011,04,22,02,46,3.80
2011,04,22,02,47,3.90
2011,04,22,02,48,3.90
2011,04,22,02,49,3.90
2011,04,22,02,50,3.90
2011,04,22,02,51,3.90
2011,04,22,02,52,3.90
2011,04,22,02,53,3.80
2011,04,22,02,54,3.80
2011,04,22,02,55,3.80
2011,04,22,02,56,3.80
2011,04,22,02,57,3.80
2011,04,22,02,58,3.80
2011,04,22,02,59,3.80
2011,04,22,03,00,3.80
2011,04,22,03,01,3.80
2011,04,22,03,02,3.80
2011,04,22,03,03,3.90
2011,04,22,03,04,3.90
2011,04,22,03,05,3.90
2011,04,22,03,06,3.90
2011,04,22,03,07,3.90
2011,04,22,03,08,3.90
2011,04,22,03,09,3.90
2011,04,22,03,10,3.90
2011,04,22,03,11,3.90
2011,04,22,03,12,3.80
2011,04,22,03,13,3.80
2011,04,22,03,14,3.80
2011,04,22,03,15,3.70
2011,04,22,03,16,3.70
2011,04,22,03,17,3.70
2011,04,22,03,18,3.70
2011,04,22,03,19,3.70
2011,04,22,03,20,3.60
2011,04,22,03,21,3.60
2011,04,22,03,22,3.50
2011,04,22,03,23,3.40
2011,04,22,03,24,3.40
2011,04,22,03,25,3.30
2011,04,22,03,26,3.30
2011,04,22,03,27,3.30
2011,04,22,03,28,3.30
2011,04,22,03,29,3.30
2011,04,22,03,30,3.30
2011,04,22,03,31,3.20
2011,04,22,03,32,3.20
2011,04,22,03,33,3.10
2011,04,22,03,34,3.00
2011,04,22,03,35,3.00
2011,04,22,03,36,3.00
2011,04,22,03,37,2.90
2011,04,22,03,38,2.90
2011,04,22,03,39,2.90
2011,04,22,03,40,2.90
2011,04,22,03,41,2.90
2011,04,22,03,42,2.90
2011,04,22,03,43,2.90
2011,04,22,03,44,2.90
2011,04,22,03,45,2.80
2011,04,22,03,46,2.80
2011,04,22,03,47,2.80
2011,04,22,03,48,2.80
2011,04,22,03,49,2.80
2011,04,22,03,50,2.80
2011,04,22,03,51,2.90
2011,04,22,03,52,2.90
2011,04,22,03,53,3.00
2011,04,22,03,54,3.10
2011,04,22,03,55,3.10
2011,04,22,03,56,3.10
2011,04,22,03,57,3.10
2011,04,22,03,58,3.10
2011,04,22,03,59,3.10
2011,04,22,04,00,3.10
2011,04,22,04,01,3.00
2011,04,22,04,02,3.00
2011,04,22,04,03,2.90
2011,04,22,04,04,2.90
2011,04,22,04,05,2.90
2011,04,22,04,06,2.90
2011,04,22,04,07,2.90
2011,04,22,04,08,2.90
2011,04,22,04,09,2.90
2011,04,22,04,10,2.90
2011,04,22,04,11,2.90
2011,04,22,04,12,2.90
2011,04,22,04,13,3.00
2011,04,22,04,14,3.00
2011,04,22,04,15,2.90
2011,04,22,04,16,2.90
2011,04,22,04,17,2.90
2011,04,22,04,18,2.90
2011,04,22,04,19,2.90
2011,04,22,04,20,2.90
2011,04,22,04,21,2.90
2011,04,22,04,22,2.90
2011,04,22,04,23,2.90
2011,04,22,04,24,2.90
2011,04,22,04,25,2.90
2011,04,22,04,26,2.90
2011,04,22,04,27,2.90
2011,04,22,04,28,2.90
2011,04,22,04,29,2.90
2011,04,22,04,30,2.90
2011,04,22,04,31,2.90
2011,04,22,04,32,2.90
2011,04,22,04,33,2.90
2011,04,22,04,34,2.90
2011,04,22,04,35,2.90
2011,04,22,04,36,2.90
2011,04,22,04,37,2.90
2011,04,22,04,38,2.90
2011,04,22,04,39,2.80
2011,04,22,04,40,2.90
2011,04,22,04,41,2.90
2011,04,22,04,42,2.90
2011,04,22,04,43,2.90
2011,04,22,04,44,2.90
2011,04,22,04,45,2.90
2011,04,22,04,46,2.90
2011,04,22,04,47,2.90
2011,04,22,04,48,3.00
2011,04,22,04,49,3.00
2011,04,22,04,50,3.10
2011,04,22,04,51,3.10
2011,04,22,04,52,3.10
2011,04,22,04,53,3.20
2011,04,22,04,54,3.20
2011,04,22,04,55,3.20
2011,04,22,04,56,3.30
2011,04,22,04,57,3.30
2011,04,22,04,58,3.30
2011,04,22,04,59,3.30
2011,04,22,05,00,3.40
2011,04,22,05,01,3.40
2011,04,22,05,02,3.40
2011,04,22,05,03,3.40
2011,04,22,05,04,3.40
2011,04,22,05,05,3.40
2011,04,22,05,06,3.40
2011,04,22,05,07,3.40
2011,04,22,05,08,3.40
2011,04,22,05,09,3.40
2011,04,22,05,10,3.40
2011,04,22,05,11,3.40
2011,04,22,05,12,3.40
2011,04,22,05,13,3.40
2011,04,22,05,14,3.40
2011,04,22,05,15,3.40
2011,04,22,11,11,8.90
2011,04,22,11,12,8.90
2011,04,22,11,13,8.90
2011,04,22,11,14,8.90
2011,04,22,11,15,8.80
2011,04,22,11,16,8.80
2011,04,22,11,17,8.70
2011,04,22,11,18,8.60
2011,04,22,11,19,8.60
2011,04,22,11,20,8.60
2011,04,22,11,21,8.50
2011,04,22,11,22,8.40
2011,04,22,11,23,8.40
2011,04,22,11,24,8.40
2011,04,22,11,25,8.50
2011,04,22,11,26,8.60
2011,04,22,11,27,8.60
2011,04,22,11,28,8.60
2011,04,22,11,29,8.60
2011,04,22,11,30,8.70
2011,04,22,11,31,8.60
2011,04,22,11,32,8.60
2011,04,22,11,33,8.60
2011,04,22,11,34,8.70
2011,04,22,11,35,8.80
2011,04,22,11,36,8.80
2011,04,22,11,37,8.80
2011,04,22,11,38,8.80
2011,04,22,11,39,8.80
2011,04,22,11,40,8.70
2011,04,22,11,41,8.60
2011,04,22,11,42,8.60
2011,04,22,11,43,8.60
2011,04,22,11,44,8.60
2011,04,22,11,45,8.70
2011,04,22,11,46,8.80
2011,04,22,11,47,8.80
2011,04,22,11,48,8.80
2011,04,22,11,49,8.80
2011,04,22,11,50,8.80
2011,04,22,11,51,8.80
2011,04,22,11,52,8.90
2011,04,22,11,53,9.00
2011,04,22,11,54,9.00
2011,04,22,11,55,8.90
2011,04,22,11,56,8.80
2011,04,22,11,57,8.80
2011,04,22,11,58,8.70
2011,04,22,11,59,8.80
2011,04,22,12,00,8.90
2011,04,22,12,01,8.90
2011,04,22,12,02,8.90
2011,04,22,12,03,8.90
2011,04,22,12,04,8.90
2011,04,22,12,05,8.90
2011,04,22,12,06,9.00
2011,04,22,12,07,9.00
2011,04,22,12,08,8.90
2011,04,22,12,09,8.80
2011,04,22,12,10,8.70
2011,04,22,12,11,8.60
2011,04,22,12,12,8.60
2011,04,22,12,13,8.60
2011,04,22,12,14,8.70
2011,04,22,12,15,8.80
2011,04,22,12,16,8.90
2011,04,22,12,17,8.90
2011,04,22,12,18,9.00
2011,04,22,12,19,9.10
2011,04,22,12,20,9.20
2011,04,22,12,21,9.30
2011,04,22,12,22,9.20
2011,04,22,12,23,9.20
2011,04,22,12,24,9.10
2011,04,22,12,25,9.10
2011,04,22,12,26,9.10
2011,04,22,12,27,9.00
2011,04,22,12,28,8.90
2011,04,22,12,29,8.80
2011,04,22,12,30,8.80
2011,04,22,12,31,8.80
2011,04,22,12,32,8.90
2011,04,22,12,33,9.00
2011,04,22,12,34,9.10
2011,04,22,12,35,9.20
2011,04,22,12,36,9.20
2011,04,22,12,37,9.30
2011,04,22,12,38,9.40
2011,04,22,12,39,9.40
2011,04,22,12,40,9.40
2011,04,22,12,41,9.40
2011,04,22,12,42,9.50
2011,04,22,12,43,9.40
2011,04,22,12,44,9.50
2011,04,22,12,45,9.50
2011,04,22,12,46,9.60
2011,04,22,12,47,9.50
2011,04,22,12,48,9.50
2011,04,22,12,49,9.50
2011,04,22,12,50,9.60
2011,04,22,12,51,9.50
2011,04,22,12,52,9.50
2011,04,22,12,53,9.60
2011,04,22,12,54,9.60
2011,04,22,12,55,9.60
2011,04,22,12,56,9.60
2011,04,22,12,57,9.60
2011,04,22,12,58,9.60
2011,04,22,12,59,9.60
2011,04,22,13,00,9.70
2011,04,22,13,01,9.80
2011,04,22,13,02,9.80
2011,04,22,13,03,9.80
2011,04,22,13,04,9.80
2011,04,22,13,05,9.80
2011,04,22,13,06,9.70
2011,04,22,13,07,9.70
2011,04,22,13,08,9.60
2011,04,22,13,09,9.60
2011,04,22,13,10,9.70
2011,04,22,13,11,9.70
2011,04,22,13,12,9.80
2011,04,22,13,13,9.80
2011,04,22,13,14,9.80
2011,04,22,13,15,9.80
2011,04,22,13,16,9.80
2011,04,22,13,17,9.90
2011,04,22,13,18,10.00
2011,04,22,13,19,10.10
2011,04,22,13,20,10.20
2011,04,22,13,21,10.20
2011,04,22,13,22,10.10
2011,04,22,13,23,9.90
2011,04,22,13,24,9.80
2011,04,22,13,25,9.80
2011,04,22,13,26,9.80
2011,04,22,13,27,9.70
2011,04,22,13,28,9.70
2011,04,22,13,29,9.70
2011,04,22,13,30,9.80
2011,04,22,13,31,9.70
2011,04,22,13,32,9.70
2011,04,22,13,33,9.60
2011,04,22,13,34,9.60
2011,04,22,13,35,9.60
2011,04,22,13,36,9.60
2011,04,22,13,37,9.60
2011,04,22,13,38,9.70
2011,04,22,13,39,9.70
2011,04,22,13,40,9.80
2011,04,22,13,41,9.80
2011,04,22,13,42,9.90
2011,04,22,13,43,10.00
2011,04,22,13,44,10.10
2011,04,22,13,45,10.10
2011,04,22,13,46,10.10
2011,04,22,13,47,10.10
2011,04,22,13,48,10.20
2011,04,22,13,49,10.10
2011,04,22,13,50,10.10
2011,04,22,13,51,10.00
2011,04,22,13,52,10.10
2011,04,22,13,53,10.10
2011,04,22,13,54,10.10
2011,04,22,13,55,10.20
2011,04,22,13,56,10.20
2011,04,22,13,57,10.20
2011,04,22,13,58,10.20
2011,04,22,13,59,10.10
2011,04,22,14,00,10.20
2011,04,22,14,01,10.20
2011,04,22,14,02,10.30
2011,04,22,14,03,10.30
2011,04,22,14,04,10.30
2011,04,22,14,05,10.40
2011,04,22,14,06,10.40
2011,04,22,14,07,10.50
2011,04,22,14,08,10.50
2011,04,22,14,09,10.50
2011,04,22,14,10,10.60
2011,04,22,14,11,10.60
2011,04,22,14,12,10.70
2011,04,22,14,13,10.80
2011,04,22,14,14,10.80
2011,04,22,14,15,10.80
2011,04,22,14,16,10.70
2011,04,22,14,17,10.70
2011,04,22,14,18,10.70
2011,04,22,14,19,10.60
2011,04,22,14,20,10.70
2011,04,22,14,21,10.70
2011,04,22,14,22,10.70
2011,04,22,14,23,10.80
2011,04,22,14,24,10.80
2011,04,22,14,25,10.80
2011,04,22,14,26,10.80
2011,04,22,14,27,10.80
2011,04,22,14,28,10.70
2011,04,22,14,29,10.70
2011,04,22,14,30,10.60
2011,04,22,14,31,10.60
2011,04,22,14,32,10.50
2011,04,22,14,33,10.40
2011,04,22,14,34,10.50
2011,04,22,14,35,10.50
2011,04,22,14,36,10.60
2011,04,22,14,37,10.60
2011,04,22,14,38,10.60
2011,04,22,14,39,10.70
2011,04,22,14,40,10.70
2011,04,22,14,41,10.70
2011,04,22,14,42,10.80
2011,04,22,14,43,10.80
2011,04,22,14,44,10.70
2011,04,22,14,45,10.70
2011,04,22,14,46,10.80
2011,04,22,14,47,10.80
2011,04,22,14,48,10.80
2011,04,22,14,49,10.80
2011,04,22,14,50,10.80
2011,04,22,14,51,10.90
2011,04,22,14,52,11.00
2011,04,22,14,53,10.90
2011,04,22,14,54,10.80
2011,04,22,14,55,10.70
2011,04,22,14,56,10.60
2011,04,22,14,57,10.40
2011,04,22,14,58,10.20
2011,04,22,14,59,10.10
2011,04,22,15,00,10.10
2011,04,22,15,01,10.20
2011,04,22,15,02,10.20
2011,04,22,15,03,10.30
2011,04,22,15,04,10.40
2011,04,22,15,05,10.40
2011,04,22,15,06,10.40
2011,04,22,15,07,10.40
2011,04,22,15,08,10.30
2011,04,22,15,09,10.30
2011,04,22,15,10,10.40
2011,04,22,15,11,10.30
2011,04,22,15,12,10.20
2011,04,22,15,13,10.20
2011,04,22,15,14,10.20
2011,04,22,15,15,10.30
2011,04,22,15,16,10.30
2011,04,22,15,17,10.20
2011,04,22,15,18,10.10
2011,04,22,15,19,10.00
2011,04,22,15,20,10.00
2011,04,22,15,21,10.00
2011,04,22,15,22,10.10
2011,04,22,15,23,10.30
2011,04,22,15,24,10.30
2011,04,22,15,25,10.10
2011,04,22,15,26,9.90
2011,04,22,15,27,9.90
2011,04,22,15,28,10.00
2011,04,22,15,29,10.00
2011,04,22,15,30,10.10
2011,04,22,15,31,10.20
2011,04,22,15,32,10.20
2011,04,22,15,33,10.20
2011,04,22,15,34,10.20
2011,04,22,15,35,10.30
2011,04,22,15,36,10.20
2011,04,22,15,37,10.20
2011,04,22,15,38,10.20
2011,04,22,15,39,10.20
2011,04,22,15,40,10.20
2011,04,22,15,41,10.30
2011,04,22,15,42,10.30
2011,04,22,15,43,10.30
2011,04,22,15,44,10.40
2011,04,22,15,45,10.50
2011,04,22,15,46,10.50
2011,04,22,15,47,10.40
2011,04,22,15,48,10.30
2011,04,22,15,49,10.30
2011,04,22,15,50,10.40
2011,04,22,15,51,10.40
2011,04,22,15,52,10.50
2011,04,22,15,53,10.50
2011,04,22,15,54,10.50
2011,04,22,15,55,10.60
2011,04,22,15,56,10.60
2011,04,22,15,57,10.60
2011,04,22,15,58,10.70
2011,04,22,15,59,10.60
2011,04,22,16,00,10.50
2011,04,22,16,01,10.40
2011,04,22,16,02,10.40
2011,04,22,16,03,10.30
2011,04,22,16,04,10.20
2011,04,22,16,05,10.20
2011,04,22,16,06,10.10
2011,04,22,16,07,10.10
2011,04,22,16,08,10.20
2011,04,22,16,09,10.20
2011,04,22,16,10,10.20
2011,04,22,16,11,10.10
2011,04,22,16,12,10.10
2011,04,22,16,13,10.10
2011,04,22,16,14,10.10
2011,04,22,16,15,10.00
2011,04,22,16,16,10.00
2011,04,22,16,17,10.00
2011,04,22,16,18,10.10
2011,04,22,16,19,10.10
2011,04,22,16,20,10.20
2011,04,22,16,21,10.20
2011,04,22,16,22,10.30
2011,04,22,16,23,10.40
2011,04,22,16,24,10.50
2011,04,22,16,25,10.60
2011,04,22,16,26,10.60
2011,04,22,16,27,10.50
2011,04,22,16,28,10.60
2011,04,22,16,29,10.60
2011,04,22,16,30,10.60
2011,04,22,16,31,10.60
2011,04,22,16,32,10.60
2011,04,22,16,33,10.60
2011,04,22,16,34,10.60
2011,04,22,16,35,10.60
2011,04,22,16,36,10.60
2011,04,22,16,37,10.60
2011,04,22,16,38,10.70
2011,04,22,16,39,10.70
2011,04,22,16,40,10.70
2011,04,22,16,41,10.70
2011,04,22,16,42,10.80
2011,04,22,16,43,10.80
2011,04,22,16,44,10.80
2011,04,22,16,45,10.80
2011,04,22,16,46,10.80
2011,04,22,16,47,10.80
2011,04,22,16,48,10.70
2011,04,22,16,49,10.70
2011,04,22,16,50,10.70
2011,04,22,16,51,10.70
2011,04,22,16,52,10.70
2011,04,22,16,53,10.70
2011,04,22,16,54,10.70
2011,04,22,16,55,10.70
2011,04,22,16,56,10.70
2011,04,22,16,57,10.80
2011,04,22,16,58,10.80
2011,04,22,16,59,10.80
2011,04,22,17,00,10.90
2011,04,22,17,01,10.90
2011,04,22,17,02,11.00
2011,04,22,17,03,11.10
2011,04,22,17,04,11.10
2011,04,22,17,05,11.20
2011,04,22,17,06,11.20
2011,04,22,17,07,11.20
2011,04,22,17,08,11.20
2011,04,22,17,09,11.10
2011,04,22,17,10,11.00
2011,04,22,17,11,11.00
2011,04,22,17,12,11.10
2011,04,22,17,13,11.20
2011,04,22,17,14,11.20
2011,04,22,17,15,11.30
2011,04,22,17,16,11.30
2011,04,22,17,17,11.30
2011,04,22,17,18,11.40
2011,04,22,17,19,11.40
2011,04,22,17,20,11.30
2011,04,22,17,21,11.30
2011,04,22,17,22,11.20
2011,04,22,17,23,11.20
2011,04,22,17,24,11.20
2011,04,22,17,25,11.20
2011,04,22,17,26,11.20
2011,04,22,17,27,11.30
2011,04,22,17,28,11.40
2011,04,22,17,29,11.40
2011,04,22,17,30,11.50
2011,04,22,17,31,11.60
2011,04,22,17,32,11.60
2011,04,22,17,33,11.70
2011,04,22,17,34,11.70
2011,04,22,17,35,11.70
2011,04,22,17,36,11.70
2011,04,22,17,37,11.70
2011,04,22,17,38,11.70
2011,04,22,17,39,11.70
2011,04,22,17,40,11.60
2011,04,22,17,41,11.50
2011,04,22,17,42,11.50
2011,04,22,17,43,11.40
2011,04,22,17,44,11.40
2011,04,22,17,45,11.40
2011,04,22,17,46,11.30
2011,04,22,17,47,11.30
2011,04,22,17,48,11.40
2011,04,22,17,49,11.50
2011,04,22,17,50,11.60
2011,04,22,17,51,11.60
2011,04,22,17,52,11.70
2011,04,22,17,53,11.70
2011,04,22,17,54,11.80
2011,04,22,17,55,11.90
2011,04,22,17,56,11.90
2011,04,22,17,57,11.90
2011,04,22,17,58,12.00
2011,04,22,17,59,12.00
2011,04,22,18,00,12.00
2011,04,22,18,01,12.00
2011,04,22,18,02,11.90
2011,04,22,18,03,11.80
2011,04,22,18,04,11.80
2011,04,22,18,05,11.70
2011,04,22,18,06,11.70
2011,04,22,18,07,11.60
2011,04,22,18,08,11.60
2011,04,22,18,09,11.70
2011,04,22,18,10,11.70
2011,04,22,18,11,11.80
2011,04,22,18,12,11.80
2011,04,22,18,13,11.80
2011,04,22,18,14,11.80
2011,04,22,18,15,11.80
2011,04,22,18,16,11.90
2011,04,22,18,17,11.90
2011,04,22,18,18,12.00
2011,04,22,18,19,12.00
2011,04,22,18,20,12.10
2011,04,22,18,21,12.10
2011,04,22,18,22,12.10
2011,04,22,18,23,12.10
2011,04,22,18,24,12.10
2011,04,22,18,25,12.10
2011,04,22,18,26,12.10
2011,04,22,18,27,12.10
2011,04,22,18,28,12.10
2011,04,22,18,29,12.00
2011,04,22,18,30,12.00
2011,04,22,18,31,11.90
2011,04,22,18,32,11.90
2011,04,22,18,33,11.80
2011,04,22,18,34,11.80
2011,04,22,18,35,11.90
2011,04,22,18,36,11.90
2011,04,22,18,37,11.80
2011,04,22,18,38,11.80
2011,04,22,18,39,11.70
2011,04,22,18,40,11.60
2011,04,22,18,41,11.50
2011,04,22,18,42,11.40
2011,04,22,18,43,11.30
2011,04,22,18,44,11.30
2011,04,22,18,45,11.30
2011,04,22,18,46,11.20
2011,04,22,18,47,11.20
2011,04,22,18,48,11.10
2011,04,22,18,49,11.10
2011,04,22,18,50,11.00
2011,04,22,18,51,11.00
2011,04,22,18,52,10.90
2011,04,22,18,53,10.80
2011,04,22,18,54,10.70
2011,04,22,18,55,10.60
2011,04,22,18,56,10.50
2011,04,22,18,57,10.50
2011,04,22,18,58,10.50
2011,04,22,18,59,10.50
2011,04,22,19,00,10.40
2011,04,22,19,01,10.40
2011,04,22,19,02,10.40
2011,04,22,19,03,10.30
2011,04,22,19,04,10.30
2011,04,22,19,05,10.30
2011,04,22,19,06,10.30
2011,04,22,19,07,10.30
2011,04,22,19,08,10.30
2011,04,22,19,09,10.30
2011,04,22,19,10,10.30
2011,04,22,19,11,10.30
2011,04,22,19,12,10.30
2011,04,22,19,13,10.20
2011,04,22,19,14,10.20
2011,04,22,19,15,10.10
2011,04,22,19,16,10.10
2011,04,22,19,17,10.00
2011,04,22,19,18,10.00
2011,04,22,19,19,9.90
2011,04,22,19,20,9.90
2011,04,22,19,21,9.90
2011,04,22,19,22,9.90
2011,04,22,19,23,9.90
2011,04,22,19,24,9.90
2011,04,22,19,25,9.80
2011,04,22,19,26,9.80
2011,04,22,19,27,9.80
2011,04,22,19,28,9.80
2011,04,22,19,29,9.80
2011,04,22,19,30,9.80
2011,04,22,19,31,9.80
2011,04,22,19,32,9.80
2011,04,22,19,33,9.80
2011,04,22,19,34,9.80
2011,04,22,19,35,9.70
2011,04,22,19,36,9.70
2011,04,22,19,37,9.70
2011,04,22,19,38,9.70
2011,04,22,19,39,9.70
2011,04,22,19,40,9.60
2011,04,22,19,41,9.60
2011,04,22,19,42,9.50
2011,04,22,19,43,9.50
2011,04,22,19,44,9.40
2011,04,22,19,45,9.30
2011,04,22,19,46,9.30
2011,04,22,19,47,9.20
2011,04,22,19,48,9.20
2011,04,22,19,49,9.20
2011,04,22,19,50,9.10
2011,04,22,19,51,9.10
2011,04,22,19,52,9.00
2011,04,22,19,53,9.00
2011,04,22,19,54,8.90
2011,04,22,19,55,8.90
2011,04,22,19,56,8.90
2011,04,22,19,57,8.90
2011,04,22,19,58,8.80
2011,04,22,19,59,8.80
2011,04,22,20,00,8.80
2011,04,22,20,01,8.80
2011,04,22,20,02,8.80
2011,04,22,20,03,8.80
2011,04,22,20,04,8.70
2011,04,22,20,05,8.70
2011,04,22,20,06,8.60
2011,04,22,20,07,8.50
2011,04,22,20,08,8.50
2011,04,22,20,09,8.40
2011,04,22,20,10,8.30
2011,04,22,20,11,8.20
2011,04,22,20,12,8.10
2011,04,22,20,13,8.10
2011,04,22,20,14,8.00
2011,04,22,20,15,7.90
2011,04,22,20,16,7.90
2011,04,22,20,17,7.80
2011,04,22,20,18,7.70
2011,04,22,20,19,7.70
2011,04,22,20,20,7.60
2011,04,22,20,21,7.50
2011,04,22,20,22,7.50
2011,04,22,20,23,7.40
2011,04,22,20,24,7.30
2011,04,22,20,25,7.30
2011,04,22,20,26,7.20
2011,04,22,20,27,7.20
2011,04,22,20,28,7.10
2011,04,22,20,29,7.10
2011,04,22,20,30,7.00
2011,04,22,20,31,6.90
2011,04,22,20,32,6.90
2011,04,22,20,33,6.80
2011,04,22,20,34,6.80
2011,04,22,20,35,6.70
2011,04,22,20,36,6.70
2011,04,22,20,37,6.60
2011,04,22,20,38,6.60
2011,04,22,20,39,6.60
2011,04,22,20,40,6.50
2011,04,22,20,41,6.50
2011,04,22,20,42,6.40
2011,04,22,20,43,6.40
2011,04,22,20,44,6.30
2011,04,22,20,45,6.30
2011,04,22,20,46,6.30
2011,04,22,20,47,6.20
2011,04,22,20,48,6.20
2011,04,22,20,49,6.10
2011,04,22,20,50,6.10
2011,04,22,20,51,6.00
2011,04,22,20,52,6.00
2011,04,22,20,53,5.90
2011,04,22,20,54,5.90
2011,04,22,20,55,5.90
2011,04,22,20,56,5.80
2011,04,22,20,57,5.80
2011,04,22,20,58,5.80
2011,04,22,20,59,5.80
2011,04,22,21,00,5.70
2011,04,22,21,01,5.70
2011,04,22,21,02,5.70
2011,04,22,21,03,5.70
2011,04,22,21,04,5.60
2011,04,22,21,05,5.60
2011,04,22,21,06,5.60
2011,04,22,21,07,5.60
2011,04,22,21,08,5.60
2011,04,22,21,09,5.50
2011,04,22,21,10,5.50
2011,04,22,21,11,5.50
2011,04,22,21,12,5.40
2011,04,22,21,13,5.40
2011,04,22,21,14,5.40
2011,04,22,21,15,5.40
2011,04,22,21,16,5.30
2011,04,22,21,17,5.30
2011,04,22,21,18,5.30
2011,04,22,21,19,5.30
2011,04,22,21,20,5.30
2011,04,22,21,21,5.30
2011,04,22,21,22,5.30
2011,04,22,21,23,5.30
2011,04,22,21,24,5.30
2011,04,22,21,25,5.20
2011,04,22,21,26,5.20
2011,04,22,21,27,5.20
2011,04,22,21,28,5.20
2011,04,22,21,29,5.20
2011,04,22,21,30,5.20
2011,04,22,21,31,5.20
2011,04,22,21,32,5.20
2011,04,22,21,33,5.20
2011,04,22,21,34,5.20
2011,04,22,21,35,5.20
2011,04,22,21,36,5.10
2011,04,22,21,37,5.10
2011,04,22,21,38,5.10
2011,04,22,21,39,5.10
2011,04,22,21,40,5.10
2011,04,22,21,41,5.10
2011,04,22,21,42,5.10
2011,04,22,21,43,5.10
2011,04,22,21,44,5.10
2011,04,22,21,45,5.10
2011,04,22,21,46,5.00
2011,04,22,21,47,5.00
2011,04,22,21,48,5.00
2011,04,22,21,49,5.00
2011,04,22,21,50,4.90
2011,04,22,21,51,4.90
2011,04,22,21,52,4.90
2011,04,22,21,53,4.90
2011,04,22,21,54,4.90
2011,04,22,21,55,4.80
2011,04,22,21,56,4.80
2011,04,22,21,57,4.80
2011,04,22,21,58,4.80
2011,04,22,21,59,4.80
2011,04,22,22,00,4.80
2011,04,22,22,01,4.80
2011,04,22,22,02,4.70
2011,04,22,22,03,4.70
2011,04,22,22,04,4.70
2011,04,22,22,05,4.70
2011,04,22,22,06,4.70
2011,04,22,22,07,4.70
2011,04,22,22,08,4.60
2011,04,22,22,09,4.60
2011,04,22,22,10,4.60
2011,04,22,22,11,4.60
2011,04,22,22,12,4.60
2011,04,22,22,13,4.60
2011,04,22,22,14,4.60
2011,04,22,22,15,4.60
2011,04,22,22,16,4.60
2011,04,22,22,17,4.60
2011,04,22,22,18,4.60
2011,04,22,22,19,4.60
2011,04,22,22,20,4.60
2011,04,22,22,21,4.60
2011,04,22,22,22,4.60
2011,04,22,22,23,4.50
2011,04,22,22,24,4.50
2011,04,22,22,25,4.40
2011,04,22,22,26,4.40
2011,04,22,22,27,4.30
2011,04,22,22,28,4.30
2011,04,22,22,29,4.30
2011,04,22,22,30,4.30
2011,04,22,22,31,4.20
2011,04,22,22,32,4.20
2011,04,22,22,33,4.20
2011,04,22,22,34,4.20
2011,04,22,22,35,4.20
2011,04,22,22,36,4.20
2011,04,22,22,37,4.10
2011,04,22,22,38,4.10
2011,04,22,22,39,4.10
2011,04,22,22,40,4.10
2011,04,22,22,41,4.10
2011,04,22,22,42,4.10
2011,04,22,22,43,4.00
2011,04,22,22,44,4.00
2011,04,22,22,45,4.00
2011,04,22,22,46,4.00
2011,04,22,22,47,4.00
2011,04,22,22,48,4.00
2011,04,22,22,49,4.00
2011,04,22,22,50,4.00
2011,04,22,22,51,3.90
2011,04,22,22,52,3.90
2011,04,22,22,53,3.90
2011,04,22,22,54,3.90
2011,04,22,22,55,3.90
2011,04,22,22,56,3.90
2011,04,22,22,57,3.90
2011,04,22,22,58,3.90
2011,04,22,22,59,3.90
2011,04,22,23,00,3.90
2011,04,22,23,01,3.90
2011,04,22,23,02,3.90
2011,04,22,23,03,3.90
2011,04,22,23,04,3.90
2011,04,22,23,05,3.90
2011,04,22,23,06,3.90
2011,04,22,23,07,3.90
2011,04,22,23,08,3.80
2011,04,22,23,09,3.80
2011,04,22,23,10,3.80
2011,04,22,23,11,3.80
2011,04,22,23,12,3.80
2011,04,22,23,13,3.80
2011,04,22,23,14,3.80
2011,04,22,23,15,3.70
2011,04,22,23,16,3.70
2011,04,22,23,17,3.70
2011,04,22,23,18,3.70
2011,04,22,23,19,3.70
2011,04,22,23,20,3.70
2011,04,22,23,21,3.70
2011,04,22,23,22,3.70
2011,04,22,23,23,3.70
2011,04,22,23,24,3.60
2011,04,22,23,25,3.60
2011,04,22,23,26,3.60
2011,04,22,23,27,3.60
2011,04,22,23,28,3.60
2011,04,22,23,29,3.60
2011,04,22,23,30,3.60
2011,04,22,23,31,3.50
2011,04,22,23,32,3.50
2011,04,22,23,33,3.50
2011,04,22,23,34,3.50
2011,04,22,23,35,3.40
2011,04,22,23,36,3.40
2011,04,22,23,37,3.40
2011,04,22,23,38,3.40
2011,04,22,23,39,3.40
2011,04,22,23,40,3.30
2011,04,22,23,41,3.30
2011,04,22,23,42,3.30
2011,04,22,23,43,3.30
2011,04,22,23,44,3.30
2011,04,22,23,45,3.30
2011,04,22,23,46,3.30